Location: Julian California
(33.0790°N, 116.6010°W)
Time: 14:53:13
(UTC-07:00)

Okean 1 Rocket - Pass Details

Date: 19 May 2017
Orbit: 608 x 634 km, 82.5° (Epoch: 24 May)

Event Time Altitude Azimuth Distance (km) Brightness Sun altitude
Rises 19:59:09 0° 359° (N) 2,930 6.9 -4.0°
Reaches altitude 10° 20:01:28 10° 5° (N) 2,018 6.0 -4.5°
Maximum altitude 20:05:50 51° 82° (E) 792 3.3 -5.3°
Drops below altitude 10° 20:10:09 10° 158° (SSE) 1,998 5.2 -6.1°
Sets 20:12:25 0° 163° (SSE) 2,898 6.1 -6.5°
